Retour au catalogue

KUIPER-00209

ActifCommunicationsLEO
NORAD 67776·PAYLOAD·🇺🇸 United States

Lancé Feb 12, 2026 depuis Vandenberg Space Force Base

Loading…

Prochains Passages (prochaines 24 heures)

TLE

FraisSource: CelesTrak SupGP

Époque: Sep 14, 2026, 19:58 UTC

1 67776C 26030N   26257.83250000 -.00010644  00000+0 -13938-2 0  2573
2 67776  51.8981  91.8094 0000895 113.8638 195.1160 14.79930459    15

Suivez KUIPER-00209 en temps réel avec AllMySat

Download on the App Store